logo
Search for airport 
image banner adimage banner adimage banner ad
image banner ad

EDLB - Borkenberge

Located in Duelmen, Germany

ICAO - EDLB, IATA -

Data provided by Airmate  

General information

Coordinates: N51°46'49" E7°17'25"
Elevation is 158 feet MSL.
Magnetic variation is 3.0000° East
View others Airports in North Rhine-Westphalia

Operational data

Special qualification required
Current time UTC:
Current local time:
Weather at : EDLW - Dortmund ( 37 km )
METAR: EDLW 130320Z 22011KT 9999 FEW013 SCT015 OVC018 13/11 Q1011
TAF: TAF EDLW 130320Z 1304/1324 23010KT 9999 BKN020 PROB30 TEMPO 1304/1307 BKN012 BECMG 1306/1309 23015KT TEMPO 1309/1315 24015G25KT PROB30 TEMPO 1311/1315 SHRA BKN025TCU BECMG 1314/1316 24010KT BECMG 1318/1320 21005KT
View NOTAMs / SUP AIP / TFR affecting this airport [VIEW]
Communications frequencies: [VIEW]

Runways:

RWY identifierQFULength (ft)Width (ft)SurfaceLDA (ft)
0775°287149ASPH2365
25255°287149ASPH2031

Airport contact information

Address: Duelmen Germany

Satellite view of EDLB